CW2751 Weather Reports


time (UTC)temp
F
wind
direction
speed
knots
gust
knots
rain 1hr
in
rain 24hr
in
rain mn
in
humidity
%
barometer
mb
20260507154508 62 255 8.7 0.0 0.00 0.00 0.00 38 1008.3
20260507153029 61 268 8.7 0.0 0.00 0.00 0.00 38 1008.7
20260507151544 59 278 7.8 0.0 0.00 0.00 0.00 42 1009.0
20260507150008 57 207 8.7 0.0 0.00 0.00 0.00 45 1009.0
20260507144506 55 247 7.8 0.0 0.00 0.00 0.00 53 1009.3
20260507143012 53 267 5.2 0.0 0.00 0.00 0.00 58 1009.4
20260507141531 51 246 7.0 0.0 0.00 0.00 0.00 58 1009.7
20260507140045 49 250 7.0 0.0 0.00 0.00 0.00 60 1010.1
20260507134552 47 275 6.1 0.0 0.00 0.00 0.00 65 1010.3
20260507133033 44 270 7.8 0.0 0.00 0.00 0.00 67 1010.6
20260507131606 43 223 7.8 0.0 0.00 0.00 0.00 69 1010.8
20260507130038 41 271 7.8 0.0 0.00 0.00 0.00 71 1010.6
20260507124552 40 254 7.8 0.0 0.00 0.00 0.00 74 1010.9
20260507123051 39 233 7.8 0.0 0.00 0.00 0.00 76 1010.9
20260507121558 38 268 8.7 0.0 0.00 0.00 0.00 77 1010.7
20260507120014 38 230 8.7 0.0 0.00 0.00 0.00 78 1010.8
20260507114511 38 262 7.0 0.0 0.00 0.00 0.00 78 1011.1
20260507113036 38 230 7.8 0.0 0.00 0.00 0.00 79 1011.0
20260507111520 38 240 8.7 0.0 0.00 0.00 0.00 79 1011.2
20260507110037 38 230 9.6 0.0 0.00 0.00 0.00 79 1011.5
20260507104536 38 244 8.7 0.0 0.00 0.00 0.00 79 1011.7
20260507103058 38 258 7.8 0.0 0.00 0.00 0.00 79 1011.9
20260507101529 38 251 9.6 0.0 0.00 0.00 0.00 80 1012.1
20260507100042 38 236 11.3 0.0 0.00 0.00 0.00 80 1012.0
20260507094531 39 257 10.4 0.0 0.00 0.00 0.00 80 1012.3
20260507093039 39 248 9.6 0.0 0.00 0.00 0.00 81 1012.3
20260507091547 38 247 10.4 0.0 0.00 0.00 0.00 82 1012.5
20260507090040 38 295 9.6 0.0 0.00 0.00 0.00 83 1012.9
20260507084556 37 257 8.7 0.0 0.00 0.00 0.00 84 1013.1
20260507083055 37 265 8.7 0.0 0.00 0.00 0.00 85 1013.2
20260507081558 37 229 8.7 0.0 0.00 0.00 0.00 85 1013.6
20260507081501 37 277 8.7 0.0 0.00 0.00 0.00 85 1013.8
20260507080056 37 264 7.8 0.0 0.00 0.00 0.00 84 1013.8
20260507074505 37 253 7.8 0.0 0.00 0.00 0.00 84 1014.2
20260507073011 37 229 7.8 0.0 0.00 0.00 0.00 84 1014.4
20260507071520 37 206 6.1 0.0 0.00 0.00 0.00 83 1014.4
20260507064600 37 247 7.8 0.0 0.00 0.00 0.00 84 1014.8
20260507063059 37 272 7.0 0.0 0.00 0.00 0.00 84 1015.0
20260507061507 37 236 7.0 0.0 0.00 0.00 0.00 84 1015.1
20260507060024 38 231 5.2 0.0 0.00 0.00 0.00 84 1015.5
20260507054514 38 230 5.2 0.0 0.00 0.00 0.00 85 1015.8
20260507053022 38 230 6.1 0.0 0.00 0.00 0.00 85 1015.9
20260507051536 39 231 6.1 0.0 0.00 0.00 0.00 86 1016.0
20260507050059 39 237 5.2 0.0 0.00 0.00 0.00 86 1015.9
20260507044525 39 247 5.2 0.0 0.00 0.00 0.00 85 1016.0
20260507043030 40 202 5.2 0.0 0.00 0.00 0.00 86 1016.0
20260507041541 39 209 5.2 0.0 0.00 0.00 0.00 86 1016.4
20260507040049 40 250 5.2 0.0 0.00 0.00 0.00 86 1016.5
20260507034513 40 246 5.2 0.0 0.00 0.00 0.00 86 1016.4
20260507033021 40 262 4.3 0.0 0.00 0.00 0.00 87 1016.4
20260507031533 40 231 3.5 0.0 0.00 0.00 0.00 87 1016.4
20260507030018 40 251 3.5 0.0 0.00 0.00 0.00 86 1016.3
20260507024521 41 226 3.5 0.0 0.00 0.00 0.00 86 1016.1
20260507023024 41 233 3.5 0.0 0.00 0.00 0.00 86 1016.0
20260507021516 41 216 3.5 0.0 0.00 0.00 0.00 86 1015.9
20260507020022 42 224 1.7 0.0 0.00 0.00 0.00 85 1016.3
20260507014529 42 206 1.7 0.0 0.00 0.00 0.00 85 1016.0
20260507013011 43 224 1.7 0.0 0.00 0.00 0.00 85 1016.0
20260507011530 43 260 1.7 0.0 0.00 0.00 0.00 86 1016.1
20260507010039 42 230 2.6 0.0 0.00 0.00 0.00 85 1016.4
20260507004529 43 272 4.3 0.0 0.00 0.00 0.00 84 1016.3
20260507003035 43 209 4.3 0.0 0.00 0.00 0.00 85 1016.2
20260507001544 43 262 3.5 0.0 0.00 0.00 0.00 87 1016.3
20260507000038 42 250 2.6 0.0 0.00 0.00 0.00 89 1016.3
20260506234503 43 250 1.7 0.0 0.00 0.00 0.00 89 1016.6
20260506233031 43 254 3.5 0.0 0.00 0.00 0.00 89 1016.6
20260506231535 42 268 3.5 0.0 0.00 0.00 0.00 89 1016.5
20260506230043 42 282 2.6 0.0 0.00 0.00 0.00 89 1016.5
20260506224549 42 219 0.9 0.0 0.00 0.00 0.00 89 1016.6
20260506223100 41 296 3.5 0.0 0.00 0.00 0.00 89 1016.7
20260506221502 42 261 4.3 0.0 0.00 0.00 0.00 88 1016.4
20260506220017 42 255 3.5 0.0 0.00 0.00 0.00 88 1016.4
20260506214540 42 185 0.9 0.0 0.00 0.00 0.00 88 1016.5
20260506213100 43 176 0.9 0.0 0.00 0.00 0.00 88 1016.5
20260506213002 42 195 0.9 0.0 0.00 0.00 0.00 87 1017.1
20260506211506 42 185 0.9 0.0 0.00 0.00 0.00 87 1017.1
20260506210010 42 213 3.5 0.0 0.00 0.00 0.00 85 1017.0
20260506204517 42 188 4.3 0.0 0.00 0.00 0.00 83 1017.0
20260506203023 43 210 3.5 0.0 0.00 0.00 0.00 84 1016.7
20260506201533 43 226 2.6 0.0 0.00 0.00 0.00 86 1017.0
20260506200018 41 195 3.5 0.0 0.00 0.00 0.00 86 1017.0
20260506194527 41 185 5.2 0.0 0.00 0.00 0.00 86 1017.0
20260506193035 42 212 0.9 0.0 0.00 0.00 0.00 88 1016.9
20260506191558 41 243 2.6 0.0 0.00 0.00 0.00 90 1017.1
20260506190100 42 240 0.9 0.0 0.00 0.00 0.00 92 1017.2
20260506184524 41 250 0.9 0.0 0.00 0.00 0.00 93 1017.4
20260506183027 41 192 0.9 0.0 0.00 0.00 0.00 94 1017.5
20260506181557 40 260 0.9 0.0 0.00 0.00 0.00 93 1017.6
20260506180015 40 203 0.0 0.0 0.00 0.00 0.00 94 1017.9
20260506174539 39 270 0.0 0.0 0.00 0.00 0.00 94 1018.0
20260506173052 38 270 0.0 0.0 0.00 0.00 0.00 93 1018.0
20260506171547 38 131 0.0 0.0 0.00 0.00 0.00 94 1018.0
20260506170054 38 131 0.0 0.0 0.00 0.00 0.00 94 1017.7
20260506164521 38 92 0.0 0.0 0.00 0.00 0.00 94 1017.7
20260506163044 38 38 0.0 0.0 0.00 0.00 0.00 94 1017.6
20260506161556 38 4 0.9 0.0 0.00 0.00 0.00 94 1017.7
20260506160042 38 6 0.0 0.0 0.00 0.00 0.00 94 1017.3